EW7211 Coconut Grove FL US current weather conditions

sailwx.info

Wind from 274

Air temperature 34.4° C
Dewpoint 22.2° C

Last reported at 2019-Sep-17 22:09 UTC.
Time now 2019-Sep-17 22:39 UTC

Location: N 25°43' W 080°15'.
View on Google Maps.

See reports from other nearby stations

  
Tides and Currents Weather Stations Pressure Air Temp Water Temp Dewpoint Dewpoint Depression Visibility Wind Speed Wind Dir Waves Ship Positions
date/time (UTC)wind fromknots sea level pressurealtimeterstation pressurevisibilityair tempwater tempwave heightnotes
2019-Sep-17 22:09 274 34.4
2019-Sep-17 22:04 330 0 gusting 3 34.4
2019-Sep-17 21:59 239 0 gusting 3 34.4
2019-Sep-17 21:54 129 0 gusting 3 34.4
2019-Sep-17 21:49 289 0 gusting 5 34.4
2019-Sep-17 21:44 290 0 gusting 5 34.4
2019-Sep-17 21:39 334 35.0
2019-Sep-17 21:34 250 0 gusting 7 34.4
2019-Sep-17 21:29 255 0 gusting 7 34.4
2019-Sep-17 21:24 304 1 gusting 7 34.4
2019-Sep-17 21:19 288 1 gusting 7 34.4
2019-Sep-17 21:14 256 1 gusting 7 34.4
2019-Sep-17 21:09 019 1 gusting 6 33.9
2019-Sep-17 21:04 324 2 gusting 6 34.4
2019-Sep-17 20:59 358 2 gusting 6 34.4
2019-Sep-17 20:54 283 1 gusting 6 34.4
2019-Sep-17 20:49 353 0 gusting 6 34.4
2019-Sep-17 20:44 056 1 gusting 7 34.4
2019-Sep-17 20:39 276 1 gusting 7 34.4
2019-Sep-17 20:34 288 2 gusting 6 34.4
2019-Sep-17 20:29 351 1 gusting 6 34.4
2019-Sep-17 20:24 293 1 gusting 6 34.4
2019-Sep-17 20:19 249 2 gusting 6 34.4
2019-Sep-17 20:14 334 1 gusting 6 34.4
2019-Sep-17 20:09 263 0 gusting 5 34.4
2019-Sep-17 20:04 278 1 gusting 8 34.4
2019-Sep-17 19:59 281 1 gusting 8 34.4
2019-Sep-17 19:54 299 1 gusting 6 34.4
2019-Sep-17 19:49 342 1 gusting 6 34.4
2019-Sep-17 19:44 261 1 gusting 6 34.4
2019-Sep-17 19:39 023 1 gusting 6 34.4
2019-Sep-17 19:34 291 1 gusting 8 35.0
2019-Sep-17 19:29 064 1 gusting 8 35.0
2019-Sep-17 19:24 296 1 gusting 8 35.0
2019-Sep-17 19:19 276 1 gusting 8 35.0
2019-Sep-17 19:14 311 1 gusting 8 35.0
2019-Sep-17 19:09 146 0 gusting 8 35.6
2019-Sep-17 19:04 216 0 gusting 6 35.6
2019-Sep-17 18:59 355 0 gusting 5 35.6
2019-Sep-17 18:54 328 0 gusting 6 35.0
2019-Sep-17 18:49 041 0 gusting 6 35.0
2019-Sep-17 18:44 117 0 gusting 4 35.0
2019-Sep-17 18:39 328 0 gusting 7 34.4
2019-Sep-17 18:34 304 0 gusting 7 35.0
2019-Sep-17 18:29 013 0 gusting 7 35.0
2019-Sep-17 18:24 345 0 gusting 7 34.4
2019-Sep-17 18:19 347 1 gusting 5 34.4
2019-Sep-17 18:14 307 1 gusting 5 34.4
2019-Sep-17 18:09 299 0 gusting 2 35.0
2019-Sep-17 18:04 105 0 gusting 5 35.0
2019-Sep-17 17:59 214 1 gusting 5 34.4
2019-Sep-17 17:54 278 0 gusting 5 35.0
2019-Sep-17 17:49 295 0 gusting 5 35.0
2019-Sep-17 17:44 271 0 gusting 5 34.4
2019-Sep-17 17:39 057 1 gusting 5 34.4
2019-Sep-17 17:34 288 1 gusting 6 34.4
2019-Sep-17 17:29 043 0 gusting 6 34.4
2019-Sep-17 17:24 057 0 gusting 6 34.4
2019-Sep-17 17:19 356 1 gusting 6 34.4
2019-Sep-17 17:14 032 0 gusting 6 34.4
2019-Sep-17 17:09 326 0 gusting 6 34.4
2019-Sep-17 17:04 293 0 gusting 6 34.4
2019-Sep-17 16:59 080 0 gusting 6 34.4
2019-Sep-17 16:54 207 0 gusting 6 34.4
2019-Sep-17 16:49 042 0 gusting 3 33.9
2019-Sep-17 16:44 302 0 gusting 2 34.4
2019-Sep-17 16:39 100 0 gusting 4 33.9
2019-Sep-17 16:34 293 1 gusting 4 33.9
2019-Sep-17 16:29 290 1 gusting 3 33.9
2019-Sep-17 16:24 314 1 gusting 4 33.3
2019-Sep-17 16:19 289 1 gusting 4 33.3
2019-Sep-17 16:14 291 0 gusting 2 33.9
2019-Sep-17 16:09 290 0 gusting 3 33.9
2019-Sep-17 16:04 283 0 gusting 3 33.3
2019-Sep-17 15:59 275 0 gusting 5 33.3
2019-Sep-17 15:54 274 0 gusting 5 33.3
2019-Sep-17 15:49 297 0 gusting 5 33.3
2019-Sep-17 15:44 103 0 gusting 2 33.3
2019-Sep-17 15:39 296 0 gusting 5 33.3
2019-Sep-17 15:34 313 0 gusting 5 33.9
2019-Sep-17 15:29 322 0 gusting 3 33.3
2019-Sep-17 15:24 248 0 gusting 3 33.3
2019-Sep-17 15:19 087 0 gusting 3 33.3
2019-Sep-17 15:14 053 33.3
2019-Sep-17 15:09 050 33.3
2019-Sep-17 15:04 160 32.8
2019-Sep-17 14:59 284 0 gusting 2 32.2
2019-Sep-17 14:54 001 0 gusting 3 31.7
2019-Sep-17 14:49 268 0 gusting 3 32.2
2019-Sep-17 14:44 115 31.7
2019-Sep-17 14:39 266 31.7
2019-Sep-17 14:34 040 31.7
2019-Sep-17 14:29 195 31.7
2019-Sep-17 14:24 276 31.1
2019-Sep-17 14:19 289 31.1
2019-Sep-17 14:14 269 30.6
2019-Sep-17 14:09 279 30.0
2019-Sep-17 14:04 298 0 gusting 5 30.0
2019-Sep-17 13:59 301 0 gusting 5 29.4
2019-Sep-17 13:54 269 29.4
2019-Sep-17 13:49 262 29.4
2019-Sep-17 13:44 291 29.4
2019-Sep-17 13:39 289 28.9
2019-Sep-17 13:34 290 28.9
2019-Sep-17 13:29 347 28.9
2019-Sep-17 13:24 324 28.3
2019-Sep-17 13:19 295 28.3
2019-Sep-17 13:14 295 28.3
2019-Sep-17 13:09 289 27.8
2019-Sep-17 13:04 292 27.8
2019-Sep-17 12:59 295 27.2
2019-Sep-17 12:34 308 26.7
2019-Sep-17 12:29 285 26.1
2019-Sep-17 12:24 282 26.1
2019-Sep-17 12:19 291 25.6
2019-Sep-17 12:14 287 25.6
2019-Sep-17 12:09 283 25.6
2019-Sep-17 12:04 280 25.6
2019-Sep-17 11:59 280 25.0
2019-Sep-17 11:54 280 25.0
2019-Sep-17 11:49 293 25.0
2019-Sep-17 11:44 293 25.0
2019-Sep-17 11:39 293 25.0
2019-Sep-17 11:34 294 25.0
2019-Sep-17 11:29 293 25.0
2019-Sep-17 11:24 294 25.0
2019-Sep-17 11:19 293 25.0
2019-Sep-17 11:14 293 25.0
2019-Sep-17 11:09 293 25.0
2019-Sep-17 11:04 293 25.0
2019-Sep-17 10:59 294 25.0
2019-Sep-17 10:54 294 25.0
2019-Sep-17 10:49 294 25.0
2019-Sep-17 10:44 293 25.0
2019-Sep-17 10:39 293 25.0
2019-Sep-17 10:34 293 25.0
2019-Sep-17 10:29 294 25.0
2019-Sep-17 10:24 294 25.6
2019-Sep-17 10:19 294 25.6
2019-Sep-17 10:14 294 25.6
2019-Sep-17 10:09 293 25.6
2019-Sep-17 10:04 294 25.6
2019-Sep-17 09:59 294 25.6
2019-Sep-17 09:54 288 25.6
2019-Sep-17 09:49 288 25.6
2019-Sep-17 09:44 289 25.6
2019-Sep-17 09:39 305 25.6
2019-Sep-17 09:34 306 25.6
2019-Sep-17 09:29 306 25.6
2019-Sep-17 09:24 297 25.6
2019-Sep-17 09:19 297 25.6
2019-Sep-17 09:14 297 25.6
2019-Sep-17 09:09 297 25.6
2019-Sep-17 09:04 297 25.6
2019-Sep-17 08:59 297 25.6
2019-Sep-17 08:54 297 25.6
2019-Sep-17 08:49 297 25.6
2019-Sep-17 08:44 297 25.6
2019-Sep-17 08:39 297 25.6
2019-Sep-17 08:34 297 25.6
2019-Sep-17 08:29 233 25.6
2019-Sep-17 08:24 233 25.6
2019-Sep-17 08:19 233 26.1
2019-Sep-17 08:14 233 26.1
2019-Sep-17 08:09 226 26.1
2019-Sep-17 08:04 226 26.1
2019-Sep-17 07:59 226 26.1
2019-Sep-17 07:54 226 26.1
2019-Sep-17 07:49 226 26.1
2019-Sep-17 07:44 226 26.1
2019-Sep-17 07:39 226 26.1
2019-Sep-17 07:34 226 26.1
2019-Sep-17 07:29 226 26.1
2019-Sep-17 07:24 226 26.1
2019-Sep-17 07:19 226 26.1
2019-Sep-17 07:14 226 26.1
2019-Sep-17 07:09 226 26.1
2019-Sep-17 07:04 226 26.1
2019-Sep-17 06:59 218 26.1
2019-Sep-17 06:54 218 26.1
2019-Sep-17 06:49 218 26.1
2019-Sep-17 06:44 218 26.1
2019-Sep-17 06:39 218 26.1
2019-Sep-17 06:34 218 26.1
2019-Sep-17 06:29 219 26.1
2019-Sep-17 06:24 219 26.1
2019-Sep-17 06:19 219 26.1
2019-Sep-17 06:14 218 26.1
2019-Sep-17 06:09 218 26.1
2019-Sep-17 06:04 218 26.1
2019-Sep-17 05:59 218 26.1
2019-Sep-17 05:54 218 26.1
2019-Sep-17 05:49 218 26.1
2019-Sep-17 05:44 219 26.7
2019-Sep-17 05:39 218 26.7
2019-Sep-17 05:34 218 26.7
2019-Sep-17 05:29 218 26.7
2019-Sep-17 05:24 218 26.7
2019-Sep-17 05:19 218 26.7
2019-Sep-17 05:14 219 26.7
2019-Sep-17 05:08 218 26.7
2019-Sep-17 05:03 218 26.7
2019-Sep-17 04:58 218 26.7
2019-Sep-17 04:53 218 26.7
2019-Sep-17 04:48 218 26.7
2019-Sep-17 04:43 218 26.7
2019-Sep-17 04:38 219 26.7
2019-Sep-17 04:33 218 26.7
2019-Sep-17 04:28 218 26.7
2019-Sep-17 04:23 218 26.7
2019-Sep-17 04:18 218 26.7
2019-Sep-17 04:13 218 26.7
2019-Sep-17 04:08 218 26.7
2019-Sep-17 04:03 218 26.7
2019-Sep-17 03:58 218 26.7
2019-Sep-17 03:53 218 26.7
2019-Sep-17 03:48 218 27.2
2019-Sep-17 03:43 218 27.2
2019-Sep-17 03:38 218 27.2
2019-Sep-17 03:33 219 27.2
2019-Sep-17 03:28 218 27.2
2019-Sep-17 03:23 218 27.2
2019-Sep-17 03:18 219 27.2
2019-Sep-17 03:13 218 27.2
2019-Sep-17 03:08 218 27.2
2019-Sep-17 03:03 218 27.2
2019-Sep-17 02:58 302 27.2
2019-Sep-17 02:53 261 27.8
2019-Sep-17 02:48 261 27.8
2019-Sep-17 02:43 261 27.8
2019-Sep-17 02:38 249 27.8
2019-Sep-17 02:33 248 27.8
2019-Sep-17 02:28 248 27.8
2019-Sep-17 02:23 248 27.8
2019-Sep-17 02:18 248 27.8
2019-Sep-17 02:13 248 27.8
2019-Sep-17 02:08 248 27.8
2019-Sep-17 02:03 248 27.8
2019-Sep-17 01:58 248 27.8
2019-Sep-17 01:53 248 27.8
2019-Sep-17 01:48 248 27.8
2019-Sep-17 01:43 248 27.8
2019-Sep-17 01:38 239 27.8
2019-Sep-17 01:33 239 27.8
2019-Sep-17 01:28 239 27.8
2019-Sep-17 01:23 239 27.8
2019-Sep-17 01:18 238 28.3
2019-Sep-17 01:13 238 28.3
2019-Sep-17 01:08 113 28.3
2019-Sep-17 01:03 113 0 gusting 3 28.3
2019-Sep-17 00:58 118 1 gusting 5 28.3
2019-Sep-17 00:53 082 0 gusting 5 29.4
2019-Sep-17 00:48 075 0 gusting 3 30.6
2019-Sep-17 00:43 063 0 gusting 3 30.6
2019-Sep-17 00:38 097 0 gusting 1 31.1
2019-Sep-17 00:33 082 31.1
2019-Sep-17 00:28 021 31.1
2019-Sep-17 00:23 295 31.1
2019-Sep-17 00:18 295 0 gusting 3 31.1
2019-Sep-17 00:13 302 0 gusting 3 31.7
2019-Sep-17 00:08 283 0 gusting 2 31.7
2019-Sep-17 00:03 270 31.1
2019-Sep-16 23:58 277 31.1
2019-Sep-16 23:53 277 31.7
2019-Sep-16 23:48 283 31.7
2019-Sep-16 23:43 292 31.7
2019-Sep-16 23:38 323 31.7
2019-Sep-16 23:33 275 31.7
2019-Sep-16 23:28 276 31.7
2019-Sep-16 23:23 290 0 gusting 3 32.2
2019-Sep-16 23:18 276 0 gusting 2 32.2
2019-Sep-16 23:13 334 0 gusting 2 32.2
2019-Sep-16 23:08 294 0 gusting 6 32.8
2019-Sep-16 23:03 326 0 gusting 6 32.8
2019-Sep-16 22:58 090 0 gusting 3 32.8
2019-Sep-16 22:53 323 0 gusting 2 33.3
2019-Sep-16 22:48 293 33.3
2019-Sep-16 22:43 235 0 gusting 4 33.3
2019-Sep-16 22:38 297 0 gusting 4 33.9
2019-Sep-16 22:33 259 0 gusting 7 33.9
2019-Sep-16 22:28 289 0 gusting 7 33.9
2019-Sep-16 22:23 300 0 gusting 3 33.9
2019-Sep-16 22:18 236 0 gusting 3 34.4
2019-Sep-16 22:13 312 0 gusting 6 34.4
2019-Sep-16 22:08 299 0 gusting 6 34.4
2019-Sep-16 22:03 025 0 gusting 6 34.4
2019-Sep-16 21:58 285 0 gusting 6 35.0
2019-Sep-16 21:53 321 0 gusting 3 35.0
2019-Sep-16 21:48 300 1 gusting 5 35.0
2019-Sep-16 21:43 345 0 gusting 5 35.0
2019-Sep-16 21:38 297 0 gusting 5 35.0
2019-Sep-16 21:33 290 1 gusting 5 35.0
2019-Sep-16 21:28 304 1 gusting 5 35.0
2019-Sep-16 21:23 287 0 gusting 2 35.6
2019-Sep-16 21:18 257 0 gusting 4 35.0
2019-Sep-16 21:13 289 1 gusting 6 35.0
2019-Sep-16 21:08 281 1 gusting 6 35.0
2019-Sep-16 21:03 020 1 gusting 5 35.0
2019-Sep-16 20:58 279 1 gusting 5 35.0
2019-Sep-16 20:53 288 1 gusting 6 35.0
2019-Sep-16 20:48 277 1 gusting 6 35.0
2019-Sep-16 20:43 316 1 gusting 4 35.0
2019-Sep-16 20:38 311 1 gusting 6 35.0
2019-Sep-16 20:33 284 1 gusting 6 35.0
2019-Sep-16 20:28 287 1 gusting 5 35.0
2019-Sep-16 20:23 274 2 gusting 6 34.4
2019-Sep-16 20:18 278 1 gusting 6 34.4
2019-Sep-16 20:13 029 1 gusting 6 34.4
2019-Sep-16 20:08 288 2 gusting 10 33.9
2019-Sep-16 20:03 262 2 gusting 10 34.4
2019-Sep-16 19:58 245 1 gusting 10 33.9
2019-Sep-16 19:53 278 1 gusting 10 33.9
2019-Sep-16 19:48 293 1 gusting 7 33.9
2019-Sep-16 19:43 302 2 gusting 7 34.4
2019-Sep-16 19:38 253 2 gusting 7 34.4
2019-Sep-16 19:33 285 1 gusting 6 34.4
2019-Sep-16 19:28 290 0 gusting 6 34.4
2019-Sep-16 19:23 286 1 gusting 6 34.4
2019-Sep-16 19:18 309 1 gusting 6 33.9
2019-Sep-16 19:13 345 1 gusting 6 33.9
2019-Sep-16 19:08 303 1 gusting 4 34.4
2019-Sep-16 19:03 271 1 gusting 5 33.9
2019-Sep-16 18:58 256 1 gusting 5 34.4
2019-Sep-16 18:53 287 2 gusting 9 34.4
2019-Sep-16 18:48 297 1 gusting 9 33.9
2019-Sep-16 18:43 307 1 gusting 6 33.9
2019-Sep-16 18:38 314 2 gusting 9 33.3
2019-Sep-16 18:33 303 2 gusting 9 33.3
2019-Sep-16 18:28 285 1 gusting 6 33.9
2019-Sep-16 18:23 291 1 gusting 7 33.9
2019-Sep-16 18:18 295 1 gusting 7 33.9
2019-Sep-16 18:13 265 1 gusting 6 33.9
2019-Sep-16 18:08 113 1 gusting 7 33.9
2019-Sep-16 18:03 297 2 gusting 7 33.9
2019-Sep-16 17:58 354 2 gusting 7 33.9
2019-Sep-16 17:53 313 2 gusting 7 33.9
2019-Sep-16 17:48 298 1 gusting 6 33.3
2019-Sep-16 17:43 297 1 gusting 6 33.3
2019-Sep-16 17:38 275 1 gusting 6 33.3
2019-Sep-16 17:33 358 1 gusting 6 33.9
2019-Sep-16 17:28 288 1 gusting 7 33.3
2019-Sep-16 17:23 265 1 gusting 7 33.3
2019-Sep-16 17:18 353 1 gusting 7 33.3
2019-Sep-16 17:13 298 1 gusting 7 33.3
2019-Sep-16 17:08 321 1 gusting 5 33.3
2019-Sep-16 17:03 294 1 gusting 8 33.9
2019-Sep-16 16:58 266 2 gusting 8 33.9
2019-Sep-16 16:53 333 3 gusting 8 33.3
2019-Sep-16 16:48 286 2 gusting 8 33.3
2019-Sep-16 16:43 231 2 gusting 8 33.3
2019-Sep-16 16:38 276 2 gusting 9 33.3
2019-Sep-16 16:33 282 2 gusting 7 33.3
2019-Sep-16 16:28 342 2 gusting 8 33.3
2019-Sep-16 16:23 039 2 gusting 8 32.8
2019-Sep-16 16:18 266 1 gusting 6 32.8
2019-Sep-16 16:13 314 1 gusting 6 32.8
2019-Sep-16 16:08 313 2 gusting 6 32.8
2019-Sep-16 16:03 006 1 gusting 6 32.8
2019-Sep-16 15:58 298 1 gusting 8 32.8
2019-Sep-16 15:53 295 2 gusting 8 32.8
2019-Sep-16 15:48 315 1 gusting 8 32.8
2019-Sep-16 15:43 300 1 gusting 5 32.8
2019-Sep-16 15:38 263 1 gusting 6 32.8
2019-Sep-16 15:33 298 1 gusting 6 32.8
2019-Sep-16 15:28 291 1 gusting 6 32.2
2019-Sep-16 15:23 291 1 gusting 6 32.2
2019-Sep-16 15:18 304 1 gusting 6 31.7
2019-Sep-16 15:13 343 1 gusting 6 31.7
2019-Sep-16 15:08 257 2 gusting 6 31.7
2019-Sep-16 15:03 286 2 gusting 6 31.7
2019-Sep-16 14:58 247 2 gusting 6 31.7
2019-Sep-16 14:53 283 2 gusting 6 31.1
2019-Sep-16 14:48 297 2 gusting 7 31.1
2019-Sep-16 14:43 276 1 gusting 7 31.1
2019-Sep-16 14:38 287 1 gusting 5 31.1
2019-Sep-16 14:33 280 2 gusting 6 31.1
2019-Sep-16 14:28 037 1 gusting 6 30.6
2019-Sep-16 14:23 288 1 gusting 6 30.6
2019-Sep-16 14:18 284 1 gusting 6 30.6
2019-Sep-16 14:13 303 1 gusting 6 30.6
2019-Sep-16 14:08 301 1 gusting 6 30.6
2019-Sep-16 14:03 301 1 gusting 6 30.6
2019-Sep-16 13:58 302 0 gusting 5 30.6
2019-Sep-16 13:53 272 0 gusting 5 30.6
2019-Sep-16 13:48 272 1 gusting 3 30.0
2019-Sep-16 13:43 273 1 gusting 4 29.4
2019-Sep-16 13:38 293 1 gusting 4 29.4
2019-Sep-16 13:33 272 1 gusting 4 29.4
2019-Sep-16 13:28 295 0 gusting 4 29.4
2019-Sep-16 13:23 264 0 gusting 4 29.4
2019-Sep-16 13:18 296 0 gusting 4 29.4
2019-Sep-16 13:13 281 0 gusting 4 29.4
2019-Sep-16 13:08 307 0 gusting 4 28.9
2019-Sep-16 13:03 276 0 gusting 4 28.9
2019-Sep-16 12:58 359 0 gusting 4 28.9
2019-Sep-16 12:53 281 0 gusting 3 28.9
2019-Sep-16 12:48 283 0 gusting 3 28.3
2019-Sep-16 12:43 274 0 gusting 3 28.3
2019-Sep-16 12:38 255 0 gusting 4 27.8
2019-Sep-16 12:33 293 0 gusting 4 27.8
2019-Sep-16 12:28 291 0 gusting 3 27.8
2019-Sep-16 12:23 302 0 gusting 3 27.2
2019-Sep-16 12:18 293 0 gusting 3 27.2
2019-Sep-16 12:13 295 26.7
2019-Sep-16 12:08 277 26.7
2019-Sep-16 12:03 277 26.7
2019-Sep-16 11:58 312 26.7
2019-Sep-16 11:53 300 26.1
2019-Sep-16 11:48 278 26.1
2019-Sep-16 11:43 278 26.1
2019-Sep-16 11:38 278 26.1
2019-Sep-16 11:33 283 26.1
2019-Sep-16 11:28 284 26.1
2019-Sep-16 11:23 289 26.1
2019-Sep-16 11:18 286 26.1
2019-Sep-16 11:13 291 26.1
2019-Sep-16 11:08 286 26.1
2019-Sep-16 11:03 268 26.1
2019-Sep-16 10:58 288 26.1
2019-Sep-16 10:53 288 26.1
2019-Sep-16 10:48 328 26.1
2019-Sep-16 10:43 286 26.1
2019-Sep-16 10:38 289 26.1
2019-Sep-16 10:33 269 26.1
2019-Sep-16 10:28 312 26.1
2019-Sep-16 10:23 293 26.1
2019-Sep-16 10:18 288 26.1
2019-Sep-16 10:13 288 26.7
2019-Sep-16 10:07 288 26.7
2019-Sep-16 10:02 288 26.7
2019-Sep-16 09:57 294 26.7
2019-Sep-16 09:52 275 26.7
2019-Sep-16 09:47 287 26.7
2019-Sep-16 09:42 288 26.7
2019-Sep-16 09:37 286 26.7
2019-Sep-16 09:32 286 26.7
2019-Sep-16 09:27 300 26.7
2019-Sep-16 09:22 250 26.7
2019-Sep-16 09:17 287 26.1
2019-Sep-16 09:12 293 26.1
2019-Sep-16 09:07 319 26.1
2019-Sep-16 09:02 319 26.1
2019-Sep-16 08:57 295 26.1
2019-Sep-16 08:52 295 26.1
2019-Sep-16 08:47 295 26.1
2019-Sep-16 08:42 295 26.1
2019-Sep-16 08:37 295 26.1
2019-Sep-16 08:32 295 26.1
2019-Sep-16 08:27 295 26.1
2019-Sep-16 08:22 295 26.1
2019-Sep-16 08:17 295 26.1
2019-Sep-16 08:12 295 26.1
2019-Sep-16 08:07 295 26.1
2019-Sep-16 08:02 295 26.1
2019-Sep-16 07:57 295 26.1
2019-Sep-16 07:52 295 26.1
2019-Sep-16 07:47 295 26.1
2019-Sep-16 07:42 295 26.1
2019-Sep-16 07:37 295 26.1
2019-Sep-16 07:32 295 26.1
2019-Sep-16 07:27 295 26.1
2019-Sep-16 07:22 295 26.1
2019-Sep-16 07:17 295 26.1
2019-Sep-16 07:12 295 26.1
2019-Sep-16 07:07 295 26.1
2019-Sep-16 07:02 295 26.1
2019-Sep-16 06:57 295 26.1
2019-Sep-16 06:52 295 26.1
2019-Sep-16 06:47 295 26.1
2019-Sep-16 06:42 295 26.1
2019-Sep-16 06:37 295 26.1
2019-Sep-16 06:32 295 26.1
2019-Sep-16 06:27 295 26.1
2019-Sep-16 06:22 295 26.1
2019-Sep-16 06:17 295 26.1
2019-Sep-16 06:12 295 26.1
2019-Sep-16 06:07 295 26.1
2019-Sep-16 06:02 295 26.1
2019-Sep-16 05:57 295 26.1
2019-Sep-16 05:52 295 26.1
2019-Sep-16 05:47 295 26.1
2019-Sep-16 05:42 295 26.1
2019-Sep-16 05:37 295 26.1
2019-Sep-16 05:32 295 26.1
2019-Sep-16 05:27 295 26.1
2019-Sep-16 05:22 295 26.1
2019-Sep-16 05:17 295 26.1
2019-Sep-16 05:12 295 26.1
2019-Sep-16 05:07 295 26.1
2019-Sep-16 05:02 295 26.1
2019-Sep-16 04:57 294 26.1
2019-Sep-16 04:52 295 26.1
2019-Sep-16 04:47 295 26.7
2019-Sep-16 04:42 295 26.7
2019-Sep-16 04:37 295 26.7
2019-Sep-16 04:32 295 26.7
2019-Sep-16 04:27 295 26.7
2019-Sep-16 04:22 295 26.7
2019-Sep-16 04:17 295 26.7
2019-Sep-16 04:12 295 26.7
2019-Sep-16 04:07 295 26.7
2019-Sep-16 04:02 295 26.7
2019-Sep-16 03:57 295 26.7
2019-Sep-16 03:52 295 26.7
2019-Sep-16 03:47 295 26.7
2019-Sep-16 03:42 295 26.7
2019-Sep-16 03:37 295 26.7
2019-Sep-16 03:32 295 26.7
2019-Sep-16 03:27 295 26.7
2019-Sep-16 03:22 295 27.2
2019-Sep-16 03:17 295 27.2
2019-Sep-16 03:12 290 27.2
2019-Sep-16 03:07 290 0 gusting 3 27.2
2019-Sep-16 03:02 300 0 gusting 3 27.2
2019-Sep-16 02:57 286 27.2
2019-Sep-16 02:52 297 27.2
2019-Sep-16 02:47 284 27.8
2019-Sep-16 02:42 274 0 gusting 4 27.8
2019-Sep-16 02:37 274 1 gusting 6 28.3
2019-Sep-16 02:32 001 1 gusting 6 28.9
2019-Sep-16 02:27 265 0 gusting 3 29.4
2019-Sep-16 02:22 292 0 gusting 3 29.4
2019-Sep-16 02:17 297 0 gusting 4 29.4
2019-Sep-16 02:12 288 0 gusting 4 29.4
2019-Sep-16 02:07 253 0 gusting 5 29.4
2019-Sep-16 02:02 228 1 gusting 5 29.4
2019-Sep-16 01:57 285 1 gusting 3 29.4
2019-Sep-16 01:52 285 0 gusting 3 29.4
2019-Sep-16 01:47 279 0 gusting 3 29.4
2019-Sep-16 01:42 252 0 gusting 4 29.4
2019-Sep-16 01:37 276 0 gusting 4 30.0
2019-Sep-16 01:32 232 0 gusting 3 30.0
2019-Sep-16 01:27 295 0 gusting 4 30.0
2019-Sep-16 01:22 330 0 gusting 4 30.0
2019-Sep-16 01:17 243 1 gusting 6 30.0
2019-Sep-16 01:12 298 1 gusting 7 30.0
2019-Sep-16 01:07 312 1 gusting 7 30.0
2019-Sep-16 01:02 251 1 gusting 5 30.0
2019-Sep-16 00:57 276 1 gusting 5 30.0
2019-Sep-16 00:52 276 1 gusting 5 30.0
2019-Sep-16 00:47 267 1 gusting 5 30.0
2019-Sep-16 00:42 302 1 gusting 5 30.0
2019-Sep-16 00:37 290 0 gusting 5 30.0
2019-Sep-16 00:32 301 0 gusting 2 30.0
2019-Sep-16 00:27 252 0 gusting 4 30.0
2019-Sep-16 00:22 294 0 gusting 4 30.0
2019-Sep-16 00:17 261 0 gusting 3 30.0
2019-Sep-16 00:12 269 0 gusting 3 30.6
2019-Sep-16 00:07 289 0 gusting 3 30.6
2019-Sep-16 00:02 299 0 gusting 3 30.6
2019-Sep-15 23:57 285 0 gusting 4 30.6
2019-Sep-15 23:52 289 0 gusting 4 30.6
2019-Sep-15 23:47 295 0 gusting 2 30.6
2019-Sep-15 23:42 285 0 gusting 2 30.6
2019-Sep-15 23:37 292 0 gusting 4 30.6
2019-Sep-15 23:32 309 0 gusting 4 31.1
2019-Sep-15 23:27 314 0 gusting 4 31.1
2019-Sep-15 23:22 281 0 gusting 4 31.7
2019-Sep-15 23:17 288 1 gusting 8 31.7
2019-Sep-15 23:12 286 1 gusting 8 31.7
2019-Sep-15 23:07 317 1 gusting 8 31.7
2019-Sep-15 23:02 310 2 gusting 8 32.2
2019-Sep-15 22:57 203 1 gusting 6 32.2
2019-Sep-15 22:52 288 1 gusting 7 32.2
2019-Sep-15 22:47 297 2 gusting 7 32.8
2019-Sep-15 22:42 293 1 gusting 7 33.3
2019-Sep-15 22:37 301 1 gusting 7 33.3
2019-Sep-15 22:32 262 2 gusting 7 33.3
2019-Sep-15 22:27 302 2 gusting 6 33.3
2019-Sep-15 22:22 279 2 gusting 6 33.3
2019-Sep-15 22:17 309 2 gusting 6 33.3
2019-Sep-15 22:12 284 1 gusting 6 33.3
2019-Sep-15 22:07 294 2 gusting 10 33.3
2019-Sep-15 22:02 299 2 gusting 10 33.3